This is the latest recevied weather packets stored in our database for station/object DL9GRB-13. If no packets are shown the sender has not sent any weather packets the latest 10 day(s).
| Time | Temp. | Humidity | Pressure | Rain* | Wind** | Luminosity | Snow |
|---|---|---|---|---|---|---|---|
| 1777709767 | 22.22° C | 44% | 1018.7 hPa | 0 mm | - | 487 W/m² | - |
| 1777709587 | 21.67° C | 44% | 1018.6 hPa | 0 mm | - | 479 W/m² | - |
| 1777709407 | 21.67° C | 45% | 1018.7 hPa | 0 mm | - | 471 W/m² | - |
| 1777709227 | 21.11° C | 46% | 1018.8 hPa | 0 mm | - | 457 W/m² | - |
| 1777709047 | 21.11° C | 46% | 1018.8 hPa | 0 mm | - | 435 W/m² | - |
| 1777708867 | 20.56° C | 47% | 1018.9 hPa | 0 mm | - | 385 W/m² | - |
| 1777708687 | 20.56° C | 47% | 1018.9 hPa | 0 mm | - | 249 W/m² | - |
| 1777708507 | 20.56° C | 47% | 1018.8 hPa | 0 mm | - | 223 W/m² | - |
| 1777708327 | 21.11° C | 49% | 1019 hPa | 0 mm | - | 334 W/m² | - |
| 1777708147 | 20.56° C | 48% | 1018.8 hPa | 0 mm | - | 395 W/m² | - |
| 1777707967 | 20.56° C | 50% | 1019 hPa | 0 mm | - | 411 W/m² | - |
| 1777707787 | 20.56° C | 49% | 1019 hPa | 0 mm | - | 414 W/m² | - |
| 1777707607 | 20° C | 52% | 1019 hPa | 0 mm | - | 412 W/m² | - |
| 1777707427 | 20° C | 51% | 1019 hPa | 0 mm | - | 407 W/m² | - |
| 1777707247 | 20° C | 50% | 1019.1 hPa | 0 mm | - | 402 W/m² | - |
| 1777707067 | 20° C | 49% | 1019.1 hPa | 0 mm | - | 395 W/m² | - |
| 1777706887 | 20° C | 50% | 1019.1 hPa | 0 mm | - | 389 W/m² | - |
| 1777706707 | 20° C | 50% | 1019.1 hPa | 0 mm | - | 383 W/m² | - |
| 1777706527 | 20° C | 51% | 1019.1 hPa | 0 mm | - | 377 W/m² | - |
| 1777706347 | 19.44° C | 52% | 1019.1 hPa | 0 mm | - | 370 W/m² | - |
| 1777706167 | 19.44° C | 51% | 1019.2 hPa | 0 mm | - | 363 W/m² | - |
| 1777705987 | 18.89° C | 52% | 1019.1 hPa | 0 mm | - | 355 W/m² | - |
| 1777705807 | 18.89° C | 51% | 1019.2 hPa | 0 mm | - | 349 W/m² | - |
| 1777705627 | 18.89° C | 51% | 1019.1 hPa | 0 mm | - | 342 W/m² | - |
| 1777705447 | 18.89° C | 50% | 1019.3 hPa | 0 mm | - | 334 W/m² | - |
* Rain latest hour (hover to see other rain measurements)
** Current wind speed in m/s (hover to see current wind gust speed)